Regional Weather Roundup
Issued by NWS

Home | Current Version | Previous Version | Text Only | Print | Product List | Glossary Off
Versions: 1 2 3 4 5 6 7 8 9 10 11 12 13 14 15 16 17 18 19 20 21 22 23 24 25 26 27 28 29 30 31 32 33 34 35 36 37 38 39 40 41 42 43 44 45 46 47 48 49 50

310
ASUS43 KDTX 192010
RWRMI
MICHIGAN HOURLY REGIONAL WEATHER ROUNDUP
NATIONAL WEATHER SERVICE DETROIT/PONTIAC MI
300 PM EST FRI JAN 19 2018

NOTE: "FAIR" INDICATES FEW OR NO CLOUDS BELOW 12,000 FEET WITH NO
SIGNIFICANT WEATHER AND/OR OBSTRUCTION TO VISIBILITY.

MIZ047>049-052>055-059>063-066>070-074>076-081>083-192100-
SOUTHEAST LOWER MICHIGAN

CITY           SKY/WX    TMP DP  RH WIND       PRES   REMARKS
ADRIAN         FAIR      32  21  64 SW17G23   29.87F WCI  21
ALMA           FAIR      36  25  63 SW13G18   29.74F WCI  27
ANN ARBOR      FAIR      34  22  61 S16       29.84F WCI  24
BAD AXE        FAIR      37  24  59 SW12G17   29.74R WCI  29
CARO           FAIR      37  24  59 SW15      29.74F WCI  27
DETROIT CITY   FAIR      36  22  56 SW18G24   29.83F WCI  26
DETROIT        PTSUNNY   35  22  58 SW18      29.86F WCI  24
FLINT          FAIR      38  22  52 SW12      29.78F WCI  30
GROSSE ILE     FAIR      35  22  57 SW9       29.86F WCI  28
HILLSDALE      FAIR      34  21  60 S12       29.82F WCI  25
HOWELL         FAIR      38  23  54 SW18      29.78F WCI  28

CITY           SKY/WX    TMP DP  RH WIND       PRES   REMARKS
JACKSON        FAIR      37  21  52 S15       29.81F WCI  28
LAMBERTVILLE   FAIR      35  20  54 SW10G17   29.88F WCI  28
LANSING        FAIR      36  23  59 SW14      29.78F WCI  27
LAPEER         FAIR      41  23  48 SW8G18    29.77S
MONROE         FAIR      35  20  55 SW12G18   29.86F WCI  26
MT. CLEMENS    PTSUNNY   35  20  54 SW13      29.81F WCI  27
PONTIAC        PTSUNNY   38  22  52 S13G18    29.78F WCI  30
PORT HOPE        N/A     36  23  59 SW12G23   29.71F WCI  28
PORT HURON     FAIR      34  19  55 S15       29.81S WCI  24
TRI CITIES     FAIR      36  25  64 SW18      29.74F WCI  26
MIDLAND        FAIR      37  26  64 SW12      29.72F WCI  29
TROY           FAIR      37  21  53 SW12G20   29.83F WCI  29
SAGINAW HB     FAIR      34  25  69 SW15      29.74F WCI  24
$$
MIZ043>046-050>051-056>058-064>065-071>073-077>080-192100-
SOUTHWEST LOWER MICHIGAN

CITY           SKY/WX    TMP DP  RH WIND       PRES   REMARKS
BATTLE CREEK   FAIR      34  21  59 SW15      29.81F WCI  24
BENTON HARBOR  FAIR      36  21  54 S14       29.81F WCI  27
BIG RAPIDS     FAIR      37  26  62 SW12G18   29.69F WCI  30
COLDWATER      FAIR      34  20  56 SW9       29.83F WCI  27
FREMONT        FAIR      36  22  58 SW18G24   29.73F WCI  26
HOLLAND        FAIR      38  22  52 SW15      29.77F WCI  29
GRAND RAPIDS   CLOUDY    37  22  54 SW14      29.77F WCI  28
IONIA          FAIR      37  23  56 SW16      29.76F WCI  28
KALAMAZOO      FAIR      36  22  56 S14       29.81F WCI  27
LUDINGTON      FAIR      36  29  74 SW17      29.69S WCI  26
MARSHALL       FAIR      33  19  57 SW9       29.81F WCI  25
MOUNT PLEASANT FAIR      38  26  61 SW8G17    29.72F WCI  32
MUSKEGON       CLOUDY    36  26  67 S24G31    29.76F WCI  24
SOUTH HAVEN    FAIR      37  20  51 S10       29.79F WCI  30
$$
MIZ016>042-192100-
NORTHERN LOWER MICHIGAN

CITY           SKY/WX    TMP DP  RH WIND       PRES   REMARKS
ALPENA         FAIR      40  28  62 SW8       29.61F WCI  34
BEAVER ISLAND  PTSUNNY   35  31  86 SW21G32   29.55F WCI  24
BELLAIRE       FAIR      40  30  69 SW6       29.62F
CADILLAC       FAIR      38  28  67 SW14      29.63F WCI  30
CHARLEVOIX     FAIR      37  28  72 S12       29.61F WCI  29
FRANKFORT      FAIR      37  30  77 SW12G20   29.64F WCI  29
GAYLORD        PTSUNNY   39  28  64 SW15      29.58F WCI  31
GRAYLING       FAIR      39  26  59 SW10G16   29.63F WCI  33
HARBOR SPRINGS FAIR      35  28  74 SW8       29.59F WCI  29
HOUGHTON LAKE  FAIR      38  27  64 SW12      29.66F WCI  30
MANISTEE       FAIR      39  26  59 S7        29.66F WCI  34
OSCODA         FAIR      37  26  65 SW17G23   29.65F WCI  27
PELLSTON       FAIR      36  27  69 SW10      29.58F WCI  28
ROGERS CITY    FAIR      38  27  64 S6        29.60F WCI  34
TRAVERSE CITY  CLOUDY    42  29  59 S8G17     29.61F
$$
MIZ007>008-015-192100-
EASTERN UPPER MICHIGAN

CITY           SKY/WX    TMP DP  RH WIND       PRES   REMARKS
KINROSS        CLOUDY    34  29  82 SW14G23   29.53F WCI  25
MACKINAC ISLAN FAIR      33  28  83 W9        29.57F WCI  25
NEWBERRY       PTSUNNY   33  32  96 S23G32    29.48F WCI  20
S. S. MARIE    CLOUDY    37  30  75 S12       29.54F WCI  29
MUNISING         N/A     32  26  78 S14G23    29.45F WCI  22
$$
MIZ004>006-011>014-085-192100-
CENTRAL UPPER MICHIGAN

CITY           SKY/WX    TMP DP  RH WIND       PRES   REMARKS
ESCANABA       FAIR      30  25  81 S16G23    29.53F WCI  19
MENOMINEE      FAIR      34  25  69 S12       29.56F WCI  25
SAWYER-GWINN   CLOUDY    32  23  69 SW12      29.46F WCI  23
$$
MIZ001>003-009>011-084-192100-
WESTERN UPPER MICHIGAN

CITY           SKY/WX    TMP DP  RH WIND       PRES   REMARKS
IRON MOUNTAIN  FAIR      35  25  66 SE6       29.46F WCI  30
HOUGHTON       PTSUNNY   43  25  49 W15       29.35F
COPPER HARBOR    N/A     39  26  59 SW6       29.36F WCI  35
IRONWOOD       FAIR      41  24  51 S8        29.41F
$$

ABBREVIATIONS USED IN REMARKS
   TC - TEMPERATURE IN CELSIUS
  WCI - WIND CHILL INDEX
   HX - HEAT INDEX
  VSB - VISIBILITY





USA.gov is the U.S. government's official web portal to all federal, state and local government web resources and services.